Simultaneous Nadir Overpasses (SNOs) Predictions

Prediction of SNOs between TERRA and METOP-C Satellite Orbit:

Table of predicted SNOs for the next 14.0 days since TLE Epoch: 11/9/2024
Index Date (TERRA) Time (TERRA) Lat,Lon (TERRA) SZA (TERRA ) Date (METOP-C) Time (METOP-C) Lat,Lon (METOP-C) SZA (METOP-C ) Distance(km) Time Diff (sec)
1 11/09/2024 23:27:10 -52.41, -16.83 108.19 11/09/2024 23:25:57 -52.46, -17.26 107.97 29.72 73
2 11/10/2024 00:12:28 66.40, 160.08 84.05 11/10/2024 00:12:27 66.40, 160.09 84.05 0.61 1
3 11/10/2024 00:58:07 -78.11, -8.29 84.55 11/10/2024 00:59:20 -77.87, -6.90 84.72 41.39 73
4 11/12/2024 13:53:41 -63.28, 132.18 98.04 11/12/2024 13:53:00 -63.27, 132.15 98.02 1.47 41
5 11/12/2024 14:41:52 67.15, -56.60 85.44 11/12/2024 14:42:28 67.14, -56.64 85.43 1.93 36
6 11/15/2024 04:22:37 -65.52, -83.33 95.35 11/15/2024 04:22:33 -65.53, -83.29 95.34 2.31 4
7 11/15/2024 05:10:56 68.91, 87.98 87.73 11/15/2024 05:12:09 68.93, 88.04 87.72 2.94 73
8 11/17/2024 18:03:51 61.95,-111.37 82.12 11/17/2024 18:03:08 61.94,-111.38 82.14 0.90 43
9 11/17/2024 18:51:59 -66.17, 59.86 94.12 11/17/2024 18:52:35 -66.16, 59.82 94.14 2.05 36
10 11/20/2024 07:48:49 -45.17,-144.80 111.59 11/20/2024 07:47:36 -45.24,-145.26 111.29 37.09 73
11 11/20/2024 08:32:46 64.05, 32.86 84.60 11/20/2024 08:32:43 64.05, 32.86 84.60 0.29 3
12 11/20/2024 09:19:28 -72.93,-148.38 87.27 11/20/2024 09:20:42 -72.82,-147.86 87.40 21.22 74
13 11/22/2024 22:13:43 -61.33, 5.68 97.23 11/22/2024 22:13:05 -61.34, 5.70 97.20 1.33 38



Historial Predications of SNOs between TERRA and METOP-C
